Time,TemperatureF,DewpointF,PressureIn,WindDirection,WindDirectionDegrees,WindSpeedMPH,WindSpeedGustMPH,Humidity,HourlyPrecipIn,Conditions,Clouds,dailyrainin,SoftwareType,DateUTC
2013-02-26 00:00:00,34.0,22.4,29.65,NE,51,0.0,0.0,62,0.00,,---,0.00,VWS V14.01,2013-02-26 05:00:00,
2013-02-26 00:05:00,34.0,22.4,29.65,NE,51,0.0,0.0,62,0.00,,---,0.00,VWS V14.01,2013-02-26 05:05:00,
2013-02-26 00:10:00,34.0,22.4,29.65,NE,51,0.0,0.0,62,0.00,,---,0.00,VWS V14.01,2013-02-26 05:10:00,
2013-02-26 00:15:00,33.8,22.2,29.65,NE,51,0.0,0.0,62,0.00,,---,0.00,VWS V14.01,2013-02-26 05:15:00,
2013-02-26 00:20:00,33.8,22.2,29.65,NE,51,0.0,0.0,62,0.00,,---,0.00,VWS V14.01,2013-02-26 05:20:00,
2013-02-26 00:25:00,33.8,22.2,29.65,NE,52,0.0,0.0,62,0.00,,---,0.00,VWS V14.01,2013-02-26 05:25:00,
2013-02-26 00:30:00,33.8,22.5,29.65,NE,52,0.0,0.0,63,0.00,,---,0.00,VWS V14.01,2013-02-26 05:30:00,
2013-02-26 00:35:00,33.8,22.5,29.65,NE,51,0.0,0.0,63,0.00,,---,0.00,VWS V14.01,2013-02-26 05:35:00,
2013-02-26 00:40:00,33.8,22.2,29.65,NE,51,0.0,0.0,62,0.00,,---,0.00,VWS V14.01,2013-02-26 05:40:00,
2013-02-26 00:45:00,33.8,22.5,29.65,NE,51,0.0,0.0,63,0.00,,---,0.00,VWS V14.01,2013-02-26 05:45:00,
2013-02-26 00:50:00,33.8,22.5,29.65,NE,51,0.0,0.0,63,0.00,,---,0.00,VWS V14.01,2013-02-26 05:50:00,
2013-02-26 00:55:00,33.8,22.5,29.65,NE,51,0.0,0.0,63,0.00,,---,0.00,VWS V14.01,2013-02-26 05:55:00,
2013-02-26 01:00:00,33.8,22.5,29.65,NE,51,0.0,0.0,63,0.00,,---,0.00,VWS V14.01,2013-02-26 06:00:00,
2013-02-26 01:05:00,33.8,22.5,29.65,NE,51,0.0,0.0,63,0.00,,---,0.00,VWS V14.01,2013-02-26 06:05:00,
2013-02-26 01:10:00,33.8,22.2,29.65,NE,51,0.0,0.0,62,0.00,,---,0.00,VWS V14.01,2013-02-26 06:10:00,
2013-02-26 01:15:00,33.8,22.2,29.65,NE,51,0.0,0.0,62,0.00,,---,0.00,VWS V14.01,2013-02-26 06:15:00,
2013-02-26 01:20:00,34.0,22.4,29.65,NE,51,0.0,0.0,62,0.00,,---,0.00,VWS V14.01,2013-02-26 06:20:00,
2013-02-26 01:25:00,34.0,22.4,29.65,NE,51,0.0,0.0,62,0.00,,---,0.00,VWS V14.01,2013-02-26 06:25:00,
2013-02-26 01:30:00,34.0,22.4,29.65,NE,51,0.0,0.0,62,0.00,,---,0.00,VWS V14.01,2013-02-26 06:30:00,
2013-02-26 01:35:00,34.0,22.4,29.65,NE,51,0.0,0.0,62,0.00,,---,0.00,VWS V14.01,2013-02-26 06:35:00,
2013-02-26 01:40:00,34.0,22.4,29.62,NE,51,0.0,0.0,62,0.00,,---,0.00,VWS V14.01,2013-02-26 06:40:00,
2013-02-26 01:45:00,34.0,22.4,29.62,NE,51,0.0,0.0,62,0.00,,---,0.00,VWS V14.01,2013-02-26 06:45:00,
2013-02-26 01:50:00,34.0,22.4,29.62,NE,51,0.0,0.0,62,0.00,,---,0.00,VWS V14.01,2013-02-26 06:50:00,
2013-02-26 01:55:00,34.0,22.4,29.62,NE,51,0.0,0.0,62,0.00,,---,0.00,VWS V14.01,2013-02-26 06:55:00,
2013-02-26 02:00:00,34.0,22.4,29.62,NE,51,0.0,0.0,62,0.00,,---,0.00,VWS V14.01,2013-02-26 07:00:00,
2013-02-26 02:05:00,34.0,22.4,29.62,NE,51,0.0,0.0,62,0.00,,---,0.00,VWS V14.01,2013-02-26 07:05:00,
2013-02-26 02:10:00,33.8,22.2,29.62,NE,51,0.0,0.0,62,0.00,,---,0.00,VWS V14.01,2013-02-26 07:10:00,
2013-02-26 02:15:00,33.8,22.2,29.65,NE,51,0.0,0.0,62,0.00,,---,0.00,VWS V14.01,2013-02-26 07:15:00,
2013-02-26 02:20:00,33.8,22.2,29.65,NE,51,0.0,0.0,62,0.00,,---,0.00,VWS V14.01,2013-02-26 07:20:00,
2013-02-26 02:25:00,33.8,22.2,29.65,NE,51,0.0,0.0,62,0.00,,---,0.00,VWS V14.01,2013-02-26 07:25:00,
2013-02-26 02:30:00,33.8,22.2,29.65,NE,51,0.0,0.0,62,0.00,,---,0.00,VWS V14.01,2013-02-26 07:30:00,
2013-02-26 02:35:00,34.0,22.4,29.65,NE,51,0.0,0.0,62,0.00,,---,0.00,VWS V14.01,2013-02-26 07:35:00,
2013-02-26 02:40:00,34.0,22.4,29.65,NE,51,0.0,0.0,62,0.00,,---,0.00,VWS V14.01,2013-02-26 07:40:00,
2013-02-26 02:45:00,34.0,22.4,29.65,NE,51,0.0,0.0,62,0.00,,---,0.00,VWS V14.01,2013-02-26 07:45:00,
2013-02-26 02:50:00,34.0,22.4,29.65,NE,51,0.0,0.0,62,0.00,,---,0.00,VWS V14.01,2013-02-26 07:50:00,
2013-02-26 02:55:00,34.0,22.4,29.68,NE,51,0.0,0.0,62,0.00,,---,0.00,VWS V14.01,2013-02-26 07:55:00,
2013-02-26 03:00:00,34.0,22.4,29.68,NE,51,0.0,0.0,62,0.00,,---,0.00,VWS V14.01,2013-02-26 08:00:00,
2013-02-26 03:05:00,34.0,22.4,29.68,NE,51,0.0,0.0,62,0.00,,---,0.00,VWS V14.01,2013-02-26 08:05:00,
2013-02-26 03:10:00,34.0,22.4,29.68,NE,51,0.0,0.0,62,0.00,,---,0.00,VWS V14.01,2013-02-26 08:10:00,
2013-02-26 03:15:00,34.0,22.4,29.68,NE,51,0.0,0.0,62,0.00,,---,0.00,VWS V14.01,2013-02-26 08:15:00,
2013-02-26 03:20:00,34.0,22.4,29.68,NE,51,0.0,0.0,62,0.00,,---,0.00,VWS V14.01,2013-02-26 08:20:00,
2013-02-26 03:25:00,34.0,22.4,29.68,NE,51,0.0,0.0,62,0.00,,---,0.00,VWS V14.01,2013-02-26 08:25:00,
2013-02-26 03:30:00,34.2,22.5,29.68,NE,51,0.0,0.0,62,0.00,,---,0.00,VWS V14.01,2013-02-26 08:30:00,
2013-02-26 03:35:00,34.2,22.5,29.68,NE,51,0.0,0.0,62,0.00,,---,0.00,VWS V14.01,2013-02-26 08:35:00,
2013-02-26 03:40:00,34.0,22.4,29.71,NE,51,0.0,0.0,62,0.00,,---,0.00,VWS V14.01,2013-02-26 08:40:00,
2013-02-26 03:45:00,34.2,22.5,29.71,NE,51,0.0,0.0,62,0.00,,---,0.00,VWS V14.01,2013-02-26 08:45:00,
2013-02-26 03:50:00,34.3,22.7,29.71,NE,51,0.0,0.0,62,0.00,,---,0.00,VWS V14.01,2013-02-26 08:50:00,
2013-02-26 03:55:00,34.3,22.7,29.71,NE,51,0.0,0.0,62,0.00,,---,0.00,VWS V14.01,2013-02-26 08:55:00,
2013-02-26 04:00:00,34.3,22.7,29.71,NE,51,0.0,0.0,62,0.00,,---,0.00,VWS V14.01,2013-02-26 09:00:00,
2013-02-26 04:05:00,34.3,22.7,29.71,NE,51,0.0,0.0,62,0.00,,---,0.00,VWS V14.01,2013-02-26 09:05:00,
2013-02-26 04:10:00,34.2,22.5,29.68,NE,51,0.0,0.0,62,0.00,,---,0.00,VWS V14.01,2013-02-26 09:10:00,
2013-02-26 04:15:00,34.0,22.4,29.68,NE,51,0.0,0.0,62,0.00,,---,0.00,VWS V14.01,2013-02-26 09:15:00,
2013-02-26 04:20:00,34.0,22.4,29.68,NE,51,0.0,0.0,62,0.00,,---,0.00,VWS V14.01,2013-02-26 09:20:00,
2013-02-26 04:25:00,33.8,22.2,29.68,NE,51,0.0,0.0,62,0.00,,---,0.00,VWS V14.01,2013-02-26 09:25:00,
2013-02-26 04:30:00,33.8,22.5,29.68,NE,51,0.0,0.0,63,0.00,,---,0.00,VWS V14.01,2013-02-26 09:30:00,
2013-02-26 04:35:00,33.6,22.4,29.68,NE,51,0.0,0.0,63,0.00,,---,0.00,VWS V14.01,2013-02-26 09:35:00,
2013-02-26 04:40:00,33.6,22.4,29.68,NE,51,0.0,0.0,63,0.00,,---,0.00,VWS V14.01,2013-02-26 09:40:00,
2013-02-26 04:45:00,33.6,22.8,29.68,NE,51,0.0,0.0,64,0.00,,---,0.00,VWS V14.01,2013-02-26 09:45:00,
2013-02-26 04:50:00,33.3,22.4,29.68,NE,51,0.0,0.0,64,0.00,,---,0.00,VWS V14.01,2013-02-26 09:50:00,
2013-02-26 04:55:00,33.3,22.8,29.68,NE,51,0.0,0.0,65,0.00,,---,0.00,VWS V14.01,2013-02-26 09:55:00,
2013-02-26 05:00:00,33.1,22.6,29.68,NE,51,0.0,0.0,65,0.00,,---,0.00,VWS V14.01,2013-02-26 10:00:00,
2013-02-26 05:05:00,32.9,22.4,29.68,NE,51,0.0,0.0,65,0.00,,---,0.00,VWS V14.01,2013-02-26 10:05:00,
2013-02-26 05:10:00,32.9,22.8,29.68,NE,51,0.0,0.0,66,0.00,,---,0.00,VWS V14.01,2013-02-26 10:10:00,
2013-02-26 05:15:00,32.7,22.6,29.68,NE,51,0.0,0.0,66,0.00,,---,0.00,VWS V14.01,2013-02-26 10:15:00,
2013-02-26 05:20:00,32.7,23.0,29.68,NE,51,0.0,0.0,67,0.00,,---,0.00,VWS V14.01,2013-02-26 10:20:00,
2013-02-26 05:25:00,32.7,23.0,29.68,NE,47,0.0,0.0,67,0.00,,---,0.00,VWS V14.01,2013-02-26 10:25:00,
2013-02-26 05:30:00,32.9,23.2,29.68,NE,47,0.0,0.0,67,0.00,,---,0.00,VWS V14.01,2013-02-26 10:30:00,
2013-02-26 05:35:00,33.1,23.3,29.68,NE,47,0.0,0.0,67,0.00,,---,0.00,VWS V14.01,2013-02-26 10:35:00,
2013-02-26 05:40:00,33.1,23.3,29.71,NE,47,0.0,0.0,67,0.00,,---,0.00,VWS V14.01,2013-02-26 10:40:00,
2013-02-26 05:45:00,33.1,23.3,29.71,NE,47,0.0,0.0,67,0.00,,---,0.00,VWS V14.01,2013-02-26 10:45:00,
2013-02-26 05:50:00,33.1,23.3,29.71,NE,47,0.0,0.0,67,0.00,,---,0.00,VWS V14.01,2013-02-26 10:50:00,
2013-02-26 05:55:00,33.1,23.3,29.71,NE,47,0.0,0.0,67,0.00,,---,0.00,VWS V14.01,2013-02-26 10:55:00,
2013-02-26 06:00:00,33.1,23.3,29.71,NE,47,0.0,0.0,67,0.00,,---,0.00,VWS V14.01,2013-02-26 11:00:00,
2013-02-26 06:05:00,33.1,23.3,29.71,NE,47,0.0,0.0,67,0.00,,---,0.00,VWS V14.01,2013-02-26 11:05:00,
2013-02-26 06:10:00,33.1,23.3,29.71,NE,47,0.0,0.0,67,0.00,,---,0.00,VWS V14.01,2013-02-26 11:10:00,
2013-02-26 06:15:00,33.1,23.3,29.71,NE,47,0.0,0.0,67,0.00,,---,0.00,VWS V14.01,2013-02-26 11:15:00,
2013-02-26 06:20:00,33.1,23.3,29.71,NE,47,0.0,0.0,67,0.00,,---,0.00,VWS V14.01,2013-02-26 11:20:00,
2013-02-26 06:25:00,33.1,23.7,29.71,ENE,58,0.0,0.0,68,0.00,,---,0.00,VWS V14.01,2013-02-26 11:25:00,
2013-02-26 06:30:00,33.1,23.7,29.71,NE,45,0.0,0.0,68,0.00,,---,0.00,VWS V14.01,2013-02-26 11:30:00,
2013-02-26 06:35:00,33.3,23.9,29.68,NE,49,0.0,0.0,68,0.00,,---,0.00,VWS V14.01,2013-02-26 11:35:00,
2013-02-26 06:40:00,33.3,23.9,29.71,NE,49,0.0,0.0,68,0.00,,---,0.00,VWS V14.01,2013-02-26 11:40:00,
2013-02-26 06:45:00,33.3,23.9,29.71,NE,49,0.0,0.0,68,0.00,,---,0.00,VWS V14.01,2013-02-26 11:45:00,
2013-02-26 06:50:00,33.3,23.9,29.71,NNE,27,0.0,0.0,68,0.00,,---,0.00,VWS V14.01,2013-02-26 11:50:00,
2013-02-26 06:55:00,33.3,23.9,29.71,NNE,27,0.0,0.0,68,0.00,,---,0.00,VWS V14.01,2013-02-26 11:55:00,
2013-02-26 07:00:00,33.3,23.9,29.71,NNE,27,0.0,0.0,68,0.00,,---,0.00,VWS V14.01,2013-02-26 12:00:00,
2013-02-26 07:05:00,33.3,23.9,29.71,NNE,27,0.0,0.0,68,0.00,,---,0.00,VWS V14.01,2013-02-26 12:05:00,
2013-02-26 07:10:00,33.4,24.0,29.71,NNE,19,0.0,0.0,68,0.00,,---,0.00,VWS V14.01,2013-02-26 12:10:00,
2013-02-26 07:15:00,33.6,23.9,29.71,NNE,19,0.0,0.0,67,0.00,,---,0.00,VWS V14.01,2013-02-26 12:15:00,
2013-02-26 07:20:00,33.8,23.7,29.71,NE,42,0.0,0.0,66,0.00,,---,0.00,VWS V14.01,2013-02-26 12:20:00,
2013-02-26 07:25:00,34.0,23.8,29.71,NE,43,0.0,0.0,66,0.00,,---,0.00,VWS V14.01,2013-02-26 12:25:00,
2013-02-26 07:30:00,34.2,23.6,29.71,NE,45,0.0,0.0,65,0.00,,---,0.00,VWS V14.01,2013-02-26 12:30:00,
2013-02-26 07:35:00,34.3,23.8,29.71,NE,52,0.0,0.0,65,0.00,,---,0.00,VWS V14.01,2013-02-26 12:35:00,
2013-02-26 07:40:00,34.3,23.4,29.71,NE,45,0.0,0.0,64,0.00,,---,0.00,VWS V14.01,2013-02-26 12:40:00,
2013-02-26 07:45:00,34.5,23.2,29.71,NE,47,0.0,0.0,63,0.00,,---,0.00,VWS V14.01,2013-02-26 12:45:00,
2013-02-26 07:50:00,34.5,23.2,29.71,NE,49,0.0,0.0,63,0.00,,---,0.00,VWS V14.01,2013-02-26 12:50:00,
2013-02-26 07:55:00,34.5,23.2,29.71,NE,54,0.0,0.0,63,0.00,,---,0.00,VWS V14.01,2013-02-26 12:55:00,
2013-02-26 08:00:00,35.4,23.3,29.71,NNE,18,0.0,0.0,61,0.00,,---,0.00,VWS V14.01,2013-02-26 13:00:00,
2013-02-26 08:05:00,35.6,23.1,29.71,NNE,23,0.0,0.0,60,0.00,,---,0.00,VWS V14.01,2013-02-26 13:05:00,
2013-02-26 08:10:00,35.6,23.1,29.71,NE,38,0.0,0.0,60,0.00,,---,0.00,VWS V14.01,2013-02-26 13:10:00,
2013-02-26 08:15:00,35.8,23.3,29.71,NE,38,0.0,0.0,60,0.00,,---,0.00,VWS V14.01,2013-02-26 13:15:00,
2013-02-26 08:20:00,36.3,23.8,29.71,NE,38,0.0,0.0,60,0.00,,---,0.00,VWS V14.01,2013-02-26 13:20:00,
2013-02-26 08:25:00,36.3,23.4,29.71,ENE,64,0.0,0.0,59,0.00,,---,0.00,VWS V14.01,2013-02-26 13:25:00,
2013-02-26 08:30:00,36.5,23.5,29.74,ENE,66,0.0,0.0,59,0.00,,---,0.00,VWS V14.01,2013-02-26 13:30:00,
2013-02-26 08:35:00,36.9,23.9,29.74,NE,53,0.0,0.0,59,0.00,,---,0.00,VWS V14.01,2013-02-26 13:35:00,
2013-02-26 08:40:00,36.9,23.9,29.74,North,9,0.0,0.0,59,0.00,,---,0.00,VWS V14.01,2013-02-26 13:40:00,
2013-02-26 08:45:00,37.0,23.6,29.74,North,11,0.0,0.0,58,0.00,,---,0.00,VWS V14.01,2013-02-26 13:45:00,
2013-02-26 08:50:00,37.2,23.8,29.74,NE,41,0.0,0.0,58,0.00,,---,0.00,VWS V14.01,2013-02-26 13:50:00,
2013-02-26 08:55:00,37.4,23.6,29.74,NE,41,0.0,0.0,57,0.00,,---,0.00,VWS V14.01,2013-02-26 13:55:00,
2013-02-26 09:00:00,37.8,23.1,29.74,NNE,27,0.0,0.0,55,0.00,,---,0.00,VWS V14.01,2013-02-26 14:00:00,
2013-02-26 09:05:00,37.9,23.2,29.74,NE,48,0.0,0.0,55,0.00,,---,0.00,VWS V14.01,2013-02-26 14:05:00,
2013-02-26 09:10:00,38.1,23.0,29.74,NE,45,0.0,0.0,54,0.00,,---,0.00,VWS V14.01,2013-02-26 14:10:00,
2013-02-26 09:15:00,38.3,23.1,29.74,NE,50,0.0,0.0,54,0.00,,---,0.00,VWS V14.01,2013-02-26 14:15:00,
2013-02-26 09:20:00,38.5,23.3,29.74,NE,42,0.0,0.0,54,0.00,,---,0.00,VWS V14.01,2013-02-26 14:20:00,
2013-02-26 09:25:00,38.5,23.3,29.74,NE,47,0.0,0.0,54,0.00,,---,0.00,VWS V14.01,2013-02-26 14:25:00,
2013-02-26 09:30:00,38.8,23.2,29.74,NNE,30,0.0,0.0,53,0.00,,---,0.00,VWS V14.01,2013-02-26 14:30:00,
2013-02-26 09:35:00,39.0,23.4,29.74,ENE,58,0.0,0.0,53,0.00,,---,0.00,VWS V14.01,2013-02-26 14:35:00,
2013-02-26 09:39:00,39.0,23.4,29.74,ENE,65,6.3,6.3,53,0.00,,---,0.00,VWS V14.01,2013-02-26 14:39:00,
2013-02-26 09:45:00,39.2,23.5,29.74,ENE,67,0.0,0.0,53,0.00,,---,0.00,VWS V14.01,2013-02-26 14:45:00,
2013-02-26 09:50:00,39.6,22.9,29.74,East,92,0.0,0.0,51,0.00,,---,0.00,VWS V14.01,2013-02-26 14:50:00,
2013-02-26 09:55:00,39.7,23.1,29.74,ENE,73,0.0,7.2,51,0.00,,---,0.00,VWS V14.01,2013-02-26 14:55:00,
2013-02-26 10:00:00,39.9,23.3,29.74,ENE,68,0.0,0.0,51,0.00,,---,0.00,VWS V14.01,2013-02-26 15:00:00,
2013-02-26 10:05:00,40.1,23.4,29.74,ENE,69,0.0,0.0,51,0.00,,---,0.00,VWS V14.01,2013-02-26 15:05:00,
2013-02-26 10:10:00,40.3,23.1,29.74,SE,128,0.0,0.0,50,0.00,,---,0.00,VWS V14.01,2013-02-26 15:10:00,
2013-02-26 10:15:00,40.1,23.0,29.74,East,83,5.4,5.4,50,0.00,,---,0.00,VWS V14.01,2013-02-26 15:15:00,
2013-02-26 10:20:00,40.1,23.0,29.74,South,183,6.3,6.3,50,0.00,,---,0.00,VWS V14.01,2013-02-26 15:20:00,
2013-02-26 10:24:00,40.3,23.1,29.74,East,97,0.0,0.0,50,0.00,,---,0.00,VWS V14.01,2013-02-26 15:24:00,
2013-02-26 10:30:00,40.3,23.1,29.74,South,175,0.0,0.0,50,0.00,,---,0.00,VWS V14.01,2013-02-26 15:30:00,
2013-02-26 10:39:00,40.5,23.8,29.74,ENE,64,0.0,0.0,51,0.00,,---,0.00,VWS V14.01,2013-02-26 15:39:00,
2013-02-26 10:44:00,40.6,23.5,29.74,ENE,76,6.3,6.3,50,0.00,,---,0.00,VWS V14.01,2013-02-26 15:44:00,
2013-02-26 10:49:00,40.6,23.5,29.74,South,171,0.0,6.3,50,0.00,,---,0.00,VWS V14.01,2013-02-26 15:49:00,
2013-02-26 10:54:00,41.0,23.8,29.74,SSE,156,0.0,0.0,50,0.00,,---,0.00,VWS V14.01,2013-02-26 15:54:00,
2013-02-26 10:59:00,41.4,24.1,29.74,East,80,8.1,11.6,50,0.00,,---,0.00,VWS V14.01,2013-02-26 15:59:00,
2013-02-26 11:04:00,41.5,24.3,29.74,SE,142,0.0,0.0,50,0.00,,---,0.00,VWS V14.01,2013-02-26 16:04:00,
2013-02-26 11:09:00,41.7,24.5,29.74,East,79,6.3,6.3,50,0.00,,---,0.00,VWS V14.01,2013-02-26 16:09:00,
2013-02-26 11:14:00,41.7,24.5,29.74,ESE,110,7.2,7.2,50,0.00,,---,0.00,VWS V14.01,2013-02-26 16:14:00,
2013-02-26 11:19:00,41.7,24.5,29.74,NE,41,0.0,0.0,50,0.00,,---,0.00,VWS V14.01,2013-02-26 16:19:00,
2013-02-26 11:24:00,41.7,24.5,29.74,SSE,154,0.0,0.0,50,0.00,,---,0.00,VWS V14.01,2013-02-26 16:24:00,
2013-02-26 11:29:00,41.5,24.3,29.74,SSE,155,0.0,0.0,50,0.00,,---,0.00,VWS V14.01,2013-02-26 16:29:00,
2013-02-26 11:34:00,41.2,24.4,29.74,SSW,194,0.0,0.0,51,0.00,,---,0.00,VWS V14.01,2013-02-26 16:34:00,
2013-02-26 11:39:00,40.6,24.4,29.74,SE,144,0.0,0.0,52,0.00,,---,0.00,VWS V14.01,2013-02-26 16:39:00,
2013-02-26 11:44:00,40.6,24.4,29.74,SSE,160,0.0,0.0,52,0.00,,---,0.00,VWS V14.01,2013-02-26 16:44:00,
2013-02-26 11:49:00,39.9,23.7,29.74,SE,146,0.0,0.0,52,0.00,,---,0.00,VWS V14.01,2013-02-26 16:49:00,
2013-02-26 11:54:00,39.9,23.3,29.74,East,99,5.4,5.4,51,0.00,,---,0.00,VWS V14.01,2013-02-26 16:54:00,
2013-02-26 11:59:00,39.9,23.3,29.74,East,86,0.0,5.4,51,0.00,,---,0.00,VWS V14.01,2013-02-26 16:59:00,
2013-02-26 12:04:00,40.1,23.4,29.74,East,90,0.0,0.0,51,0.00,,---,0.00,VWS V14.01,2013-02-26 17:04:00,
2013-02-26 12:09:00,40.1,23.4,29.74,ENE,68,0.0,0.0,51,0.00,,---,0.00,VWS V14.01,2013-02-26 17:09:00,
2013-02-26 12:14:00,40.3,23.6,29.74,SE,134,0.0,0.0,51,0.00,,---,0.00,VWS V14.01,2013-02-26 17:14:00,
2013-02-26 12:19:00,40.3,23.6,29.74,East,90,0.0,0.0,51,0.00,,---,0.00,VWS V14.01,2013-02-26 17:19:00,
2013-02-26 12:24:00,39.9,22.8,29.74,SSE,153,0.0,0.0,50,0.00,,---,0.00,VWS V14.01,2013-02-26 17:24:00,
2013-02-26 12:29:00,39.9,22.8,29.74,SSE,165,5.4,5.4,50,0.00,,---,0.00,VWS V14.01,2013-02-26 17:29:00,
2013-02-26 12:34:00,39.9,22.8,29.74,SSE,163,0.0,0.0,50,0.00,,---,0.00,VWS V14.01,2013-02-26 17:34:00,
2013-02-26 12:39:00,39.9,23.3,29.74,East,84,0.0,0.0,51,0.00,,---,0.00,VWS V14.01,2013-02-26 17:39:00,
2013-02-26 12:44:00,40.1,23.4,29.74,ENE,77,0.0,0.0,51,0.00,,---,0.00,VWS V14.01,2013-02-26 17:44:00,
2013-02-26 12:49:00,40.1,23.4,29.71,ENE,65,0.0,0.0,51,0.00,,---,0.00,VWS V14.01,2013-02-26 17:49:00,
2013-02-26 12:54:00,40.1,23.4,29.71,SE,142,6.3,6.3,51,0.00,,---,0.00,VWS V14.01,2013-02-26 17:54:00,
2013-02-26 12:59:00,39.9,22.8,29.71,East,84,0.0,0.0,50,0.00,,---,0.00,VWS V14.01,2013-02-26 17:59:00,
2013-02-26 13:04:00,39.9,22.8,29.71,SSE,158,0.0,0.0,50,0.00,,---,0.00,VWS V14.01,2013-02-26 18:04:00,
2013-02-26 13:09:00,39.9,22.8,29.71,SSE,158,0.0,0.0,50,0.00,,---,0.00,VWS V14.01,2013-02-26 18:09:00,
2013-02-26 13:14:00,39.7,22.6,29.71,SSE,167,5.4,5.4,50,0.00,,---,0.00,VWS V14.01,2013-02-26 18:14:00,
2013-02-26 13:19:00,39.6,22.5,29.71,SE,139,7.2,7.2,50,0.00,,---,0.00,VWS V14.01,2013-02-26 18:19:00,
2013-02-26 13:24:00,39.7,22.6,29.71,SSE,160,0.0,0.0,50,0.00,,---,0.00,VWS V14.01,2013-02-26 18:24:00,
2013-02-26 13:29:00,39.9,22.8,29.71,SE,146,0.0,0.0,50,0.00,,---,0.00,VWS V14.01,2013-02-26 18:29:00,
2013-02-26 13:34:00,41.2,24.0,29.71,SE,127,0.0,0.0,50,0.00,,---,0.00,VWS V14.01,2013-02-26 18:34:00,
2013-02-26 13:39:00,42.3,24.5,29.71,SE,145,5.4,5.4,49,0.00,,---,0.00,VWS V14.01,2013-02-26 18:39:00,
2013-02-26 13:44:00,42.3,24.5,29.71,SSE,154,4.5,4.5,49,0.00,,---,0.00,VWS V14.01,2013-02-26 18:44:00,
2013-02-26 13:49:00,41.7,24.0,29.71,South,170,4.5,8.1,49,0.00,,---,0.00,VWS V14.01,2013-02-26 18:49:00,
2013-02-26 13:54:00,41.5,23.8,29.71,SE,141,6.3,6.3,49,0.00,,---,0.00,VWS V14.01,2013-02-26 18:54:00,
2013-02-26 13:59:00,41.7,24.0,29.68,SSE,154,5.4,5.4,49,0.00,,---,0.00,VWS V14.01,2013-02-26 18:59:00,
2013-02-26 14:04:00,41.9,24.1,29.68,East,98,6.3,8.1,49,0.00,,---,0.00,VWS V14.01,2013-02-26 19:04:00,
2013-02-26 14:09:00,42.3,24.5,29.68,SE,127,0.0,0.0,49,0.00,,---,0.00,VWS V14.01,2013-02-26 19:09:00,
2013-02-26 14:14:00,42.3,24.5,29.68,SSW,198,5.4,5.4,49,0.00,,---,0.00,VWS V14.01,2013-02-26 19:14:00,
2013-02-26 14:19:00,42.3,24.5,29.68,East,91,0.0,4.5,49,0.00,,---,0.00,VWS V14.01,2013-02-26 19:19:00,
2013-02-26 14:24:00,42.4,24.6,29.68,SSE,164,5.4,6.3,49,0.00,,---,0.00,VWS V14.01,2013-02-26 19:24:00,
2013-02-26 14:29:00,42.3,24.5,29.68,South,189,4.5,4.5,49,0.00,,---,0.00,VWS V14.01,2013-02-26 19:29:00,
2013-02-26 14:34:00,42.3,24.5,29.68,SSE,152,0.0,0.0,49,0.00,,---,0.00,VWS V14.01,2013-02-26 19:34:00,
2013-02-26 14:39:00,41.7,23.5,29.68,SSW,194,8.1,8.1,48,0.00,,---,0.00,VWS V14.01,2013-02-26 19:39:00,
2013-02-26 14:44:00,41.7,23.5,29.68,ESE,107,0.0,0.0,48,0.00,,---,0.00,VWS V14.01,2013-02-26 19:44:00,
2013-02-26 14:49:00,41.5,23.3,29.68,SSE,155,6.3,6.3,48,0.00,,---,0.00,VWS V14.01,2013-02-26 19:49:00,
2013-02-26 14:54:00,41.2,23.0,29.68,SE,138,0.0,0.0,48,0.00,,---,0.00,VWS V14.01,2013-02-26 19:54:00,
2013-02-26 14:59:00,41.4,23.2,29.68,SE,143,4.5,4.5,48,0.00,,---,0.00,VWS V14.01,2013-02-26 19:59:00,
2013-02-26 15:04:00,41.0,22.8,29.68,SSE,161,0.0,0.0,48,0.00,,---,0.00,VWS V14.01,2013-02-26 20:04:00,
2013-02-26 15:09:00,41.2,23.0,29.68,SE,146,7.2,7.2,48,0.00,,---,0.00,VWS V14.01,2013-02-26 20:09:00,
2013-02-26 15:14:00,41.0,22.8,29.68,South,169,0.0,5.4,48,0.00,,---,0.00,VWS V14.01,2013-02-26 20:14:00,
2013-02-26 15:19:00,40.5,22.8,29.68,East,96,8.1,8.1,49,0.00,,---,0.00,VWS V14.01,2013-02-26 20:19:00,
2013-02-26 15:24:00,40.3,22.7,29.68,SE,135,7.2,7.2,49,0.00,,---,0.00,VWS V14.01,2013-02-26 20:24:00,
2013-02-26 15:29:00,39.7,22.2,29.68,SSE,156,8.1,8.1,49,0.00,,---,0.00,VWS V14.01,2013-02-26 20:29:00,
2013-02-26 15:34:00,39.6,22.0,29.68,South,177,8.1,8.1,49,0.00,,---,0.00,VWS V14.01,2013-02-26 20:34:00,
2013-02-26 15:39:00,39.6,22.0,29.68,SSE,167,0.0,7.2,49,0.00,,---,0.00,VWS V14.01,2013-02-26 20:39:00,
2013-02-26 15:44:00,39.6,22.0,29.68,SSE,148,0.0,0.0,49,0.00,,---,0.00,VWS V14.01,2013-02-26 20:44:00,
2013-02-26 15:49:00,39.4,21.8,29.68,SSE,154,0.0,0.0,49,0.00,,---,0.00,VWS V14.01,2013-02-26 20:49:00,
2013-02-26 15:54:00,39.2,21.7,29.68,SE,129,0.0,0.0,49,0.00,,---,0.00,VWS V14.01,2013-02-26 20:54:00,
2013-02-26 15:59:00,38.8,21.3,29.68,ESE,105,0.0,0.0,49,0.00,,---,0.00,VWS V14.01,2013-02-26 20:59:00,
2013-02-26 16:04:00,38.8,21.3,29.68,SSE,148,4.5,4.5,49,0.00,,---,0.00,VWS V14.01,2013-02-26 21:04:00,
2013-02-26 16:09:00,38.5,21.0,29.68,SSE,147,0.0,0.0,49,0.00,,---,0.00,VWS V14.01,2013-02-26 21:09:00,
2013-02-26 16:14:00,38.1,20.7,29.68,SSE,147,4.5,5.4,49,0.00,,---,0.00,VWS V14.01,2013-02-26 21:14:00,
2013-02-26 16:19:00,37.9,20.5,29.68,ESE,123,0.0,0.0,49,0.00,,---,0.00,VWS V14.01,2013-02-26 21:19:00,
2013-02-26 16:24:00,37.9,20.5,29.68,NE,45,0.0,0.0,49,0.00,,---,0.00,VWS V14.01,2013-02-26 21:24:00,
2013-02-26 16:29:00,37.6,20.2,29.68,NNE,31,5.4,7.2,49,0.00,,---,0.00,VWS V14.01,2013-02-26 21:29:00,
2013-02-26 16:34:00,37.2,20.3,29.65,ESE,122,6.3,6.3,50,0.00,,---,0.00,VWS V14.01,2013-02-26 21:34:00,
2013-02-26 16:39:00,37.0,20.1,29.65,ESE,105,0.0,0.0,50,0.00,,---,0.00,VWS V14.01,2013-02-26 21:39:00,
2013-02-26 16:44:00,36.9,20.0,29.65,East,89,0.0,0.0,50,0.00,,---,0.00,VWS V14.01,2013-02-26 21:44:00,
2013-02-26 16:49:00,36.9,20.0,29.65,East,89,0.0,0.0,50,0.00,,---,0.00,VWS V14.01,2013-02-26 21:49:00,
2013-02-26 16:54:00,36.9,20.0,29.65,East,84,5.4,6.3,50,0.00,,---,0.00,VWS V14.01,2013-02-26 21:54:00,
2013-02-26 16:59:00,36.5,19.6,29.65,SE,145,0.0,5.4,50,0.00,,---,0.00,VWS V14.01,2013-02-26 21:59:00,
2013-02-26 17:04:00,36.3,19.5,29.65,East,91,0.0,0.0,50,0.00,,---,0.00,VWS V14.01,2013-02-26 22:04:00,
2013-02-26 17:09:00,36.1,19.3,29.65,East,81,0.0,4.5,50,0.00,,---,0.00,VWS V14.01,2013-02-26 22:09:00,
2013-02-26 17:14:00,35.8,19.0,29.65,East,90,7.2,7.2,50,0.00,,---,0.00,VWS V14.01,2013-02-26 22:14:00,
2013-02-26 17:19:00,35.8,19.0,29.65,SE,136,0.0,0.0,50,0.00,,---,0.00,VWS V14.01,2013-02-26 22:19:00,
2013-02-26 17:24:00,35.6,19.3,29.65,SE,124,0.0,0.0,51,0.00,,---,0.00,VWS V14.01,2013-02-26 22:24:00,
2013-02-26 17:29:00,35.6,19.7,29.65,ENE,70,0.0,0.0,52,0.00,,---,0.00,VWS V14.01,2013-02-26 22:29:00,
2013-02-26 17:34:00,35.4,19.6,29.65,SSE,150,0.0,0.0,52,0.00,,---,0.00,VWS V14.01,2013-02-26 22:34:00,
2013-02-26 17:39:00,35.2,19.4,29.65,SE,137,0.0,0.0,52,0.00,,---,0.00,VWS V14.01,2013-02-26 22:39:00,
2013-02-26 17:44:00,35.2,19.4,29.65,East,86,0.0,0.0,52,0.00,,---,0.00,VWS V14.01,2013-02-26 22:44:00,
2013-02-26 17:49:00,35.1,20.1,29.65,East,95,10.7,10.7,54,0.00,,---,0.00,VWS V14.01,2013-02-26 22:49:00,
2013-02-26 17:54:00,34.9,20.4,29.62,ESE,123,5.4,5.4,55,0.00,,---,0.00,VWS V14.01,2013-02-26 22:54:00,
2013-02-26 17:59:00,34.9,20.4,29.62,SE,131,0.0,0.0,55,0.00,,---,0.00,VWS V14.01,2013-02-26 22:59:00,
2013-02-26 18:04:00,34.9,20.4,29.62,East,100,0.0,0.0,55,0.00,,---,0.00,VWS V14.01,2013-02-26 23:04:00,
2013-02-26 18:09:00,34.9,20.4,29.62,SE,146,0.0,0.0,55,0.00,,---,0.00,VWS V14.01,2013-02-26 23:09:00,
2013-02-26 18:14:00,34.5,20.5,29.62,SE,146,0.0,0.0,56,0.00,,---,0.00,VWS V14.01,2013-02-26 23:14:00,
2013-02-26 18:19:00,34.5,20.9,29.62,East,79,0.0,0.0,57,0.00,,---,0.00,VWS V14.01,2013-02-26 23:19:00,
2013-02-26 18:24:00,34.5,20.9,29.62,East,99,0.0,0.0,57,0.00,,---,0.00,VWS V14.01,2013-02-26 23:24:00,
2013-02-26 18:29:00,34.5,20.9,29.62,East,91,0.0,0.0,57,0.00,,---,0.00,VWS V14.01,2013-02-26 23:29:00,
2013-02-26 18:34:00,34.5,20.9,29.62,East,85,0.0,0.0,57,0.00,,---,0.00,VWS V14.01,2013-02-26 23:34:00,
2013-02-26 18:39:00,34.3,21.5,29.62,East,97,0.0,0.0,59,0.00,,---,0.00,VWS V14.01,2013-02-26 23:39:00,
2013-02-26 18:44:00,34.3,21.5,29.62,East,99,0.0,0.0,59,0.00,,---,0.00,VWS V14.01,2013-02-26 23:44:00,
2013-02-26 18:49:00,34.3,21.1,29.62,East,98,0.0,0.0,58,0.00,,---,0.00,VWS V14.01,2013-02-26 23:49:00,
2013-02-26 18:54:00,34.2,21.7,29.62,East,99,0.0,0.0,60,0.00,,---,0.00,VWS V14.01,2013-02-26 23:54:00,
2013-02-26 18:59:00,34.2,21.7,29.62,ESE,102,0.0,0.0,60,0.00,,---,0.00,VWS V14.01,2013-02-26 23:59:00,
2013-02-26 19:04:00,34.3,21.9,29.62,ESE,123,0.0,0.0,60,0.00,,---,0.00,VWS V14.01,2013-02-27 00:04:00,
2013-02-26 19:09:00,34.3,21.9,29.62,East,89,10.7,10.7,60,0.00,,---,0.00,VWS V14.01,2013-02-27 00:09:00,
2013-02-26 19:14:00,34.3,21.9,29.62,ESE,103,0.0,0.0,60,0.00,,---,0.00,VWS V14.01,2013-02-27 00:14:00,
2013-02-26 19:19:00,34.3,21.9,29.62,ENE,61,12.5,12.5,60,0.00,,---,0.00,VWS V14.01,2013-02-27 00:19:00,
2013-02-26 19:24:00,34.3,21.9,29.62,South,174,7.2,7.2,60,0.00,,---,0.00,VWS V14.01,2013-02-27 00:24:00,
2013-02-26 19:29:00,34.3,21.9,29.62,ESE,103,10.7,10.7,60,0.00,,---,0.00,VWS V14.01,2013-02-27 00:29:00,
2013-02-26 19:34:00,34.3,21.9,29.62,East,97,0.0,0.0,60,0.00,,---,0.00,VWS V14.01,2013-02-27 00:34:00,
2013-02-26 19:39:00,34.3,21.9,29.62,East,89,5.4,5.4,60,0.00,,---,0.00,VWS V14.01,2013-02-27 00:39:00,
2013-02-26 19:44:00,34.3,21.9,29.59,NE,39,0.0,0.0,60,0.00,,---,0.00,VWS V14.01,2013-02-27 00:44:00,
2013-02-26 19:49:00,34.3,21.9,29.59,ESE,116,8.1,8.1,60,0.00,,---,0.00,VWS V14.01,2013-02-27 00:49:00,
2013-02-26 19:54:00,34.3,21.9,29.59,East,90,0.0,7.2,60,0.00,,---,0.00,VWS V14.01,2013-02-27 00:54:00,
2013-02-26 19:59:00,34.3,21.9,29.59,ENE,62,5.4,5.4,60,0.00,,---,0.00,VWS V14.01,2013-02-27 00:59:00,
2013-02-26 20:04:00,34.3,21.9,29.59,ENE,76,7.2,10.7,60,0.00,,---,0.00,VWS V14.01,2013-02-27 01:04:00,
2013-02-26 20:09:00,34.3,21.9,29.59,ESE,113,10.7,10.7,60,0.00,,---,0.00,VWS V14.01,2013-02-27 01:09:00,
2013-02-26 20:14:00,34.5,22.1,29.59,ESE,107,0.0,0.0,60,0.00,,---,0.00,VWS V14.01,2013-02-27 01:14:00,
2013-02-26 20:19:00,34.5,22.1,29.59,East,95,5.4,9.8,60,0.00,,---,0.00,VWS V14.01,2013-02-27 01:19:00,
2013-02-26 20:24:00,34.5,22.1,29.59,East,89,5.4,5.4,60,0.00,,---,0.00,VWS V14.01,2013-02-27 01:24:00,
2013-02-26 20:29:00,34.5,22.1,29.59,ESE,122,10.7,10.7,60,0.00,,---,0.00,VWS V14.01,2013-02-27 01:29:00,
2013-02-26 20:34:00,34.5,22.1,29.59,NE,46,6.3,6.3,60,0.00,,---,0.00,VWS V14.01,2013-02-27 01:34:00,
2013-02-26 20:39:00,34.5,22.5,29.59,SE,132,6.3,6.3,61,0.00,,---,0.00,VWS V14.01,2013-02-27 01:39:00,
2013-02-26 20:44:00,34.5,22.5,29.59,East,86,15.2,15.2,61,0.00,,---,0.00,VWS V14.01,2013-02-27 01:44:00,
2013-02-26 20:49:00,34.5,22.5,29.59,East,83,4.5,4.5,61,0.00,,---,0.00,VWS V14.01,2013-02-27 01:49:00,
2013-02-26 20:54:00,34.7,22.6,29.59,East,87,16.1,16.1,61,0.00,,---,0.00,VWS V14.01,2013-02-27 01:54:00,
2013-02-26 20:59:00,34.7,22.6,29.59,ENE,72,5.4,5.4,61,0.00,,---,0.00,VWS V14.01,2013-02-27 01:59:00,
2013-02-26 21:04:00,34.7,22.6,29.59,SE,139,9.8,9.8,61,0.00,,---,0.00,VWS V14.01,2013-02-27 02:04:00,
2013-02-26 21:09:00,34.7,22.6,29.59,SE,139,9.8,9.8,61,0.00,,---,0.00,VWS V14.01,2013-02-27 02:09:00,
2013-02-26 21:14:00,34.9,22.8,29.59,East,93,0.0,0.0,61,0.00,,---,0.00,VWS V14.01,2013-02-27 02:14:00,
2013-02-26 21:19:00,34.9,22.8,29.59,East,96,0.0,0.0,61,0.00,,---,0.00,VWS V14.01,2013-02-27 02:19:00,
2013-02-26 21:24:00,34.9,22.8,29.59,East,83,5.4,5.4,61,0.00,,---,0.00,VWS V14.01,2013-02-27 02:24:00,
2013-02-26 21:29:00,34.9,22.8,29.56,NNE,13,4.5,4.5,61,0.00,,---,0.00,VWS V14.01,2013-02-27 02:29:00,
2013-02-26 21:34:00,34.9,22.8,29.56,East,96,9.8,9.8,61,0.00,,---,0.00,VWS V14.01,2013-02-27 02:34:00,
2013-02-26 21:39:00,35.1,23.0,29.56,East,85,12.5,12.5,61,0.00,,---,0.00,VWS V14.01,2013-02-27 02:39:00,
2013-02-26 21:44:00,35.1,23.0,29.56,East,87,16.6,16.6,61,0.00,,---,0.00,VWS V14.01,2013-02-27 02:44:00,
2013-02-26 21:49:00,35.1,23.0,29.56,ESE,102,9.8,9.8,61,0.00,,---,0.00,VWS V14.01,2013-02-27 02:49:00,
2013-02-26 21:54:00,35.1,23.0,29.53,NE,54,6.3,6.3,61,0.00,,---,0.00,VWS V14.01,2013-02-27 02:54:00,
2013-02-26 21:59:00,35.1,23.0,29.53,East,82,8.1,8.1,61,0.00,,---,0.00,VWS V14.01,2013-02-27 02:59:00,
2013-02-26 22:04:00,35.1,23.4,29.53,East,94,10.7,10.7,62,0.00,,---,0.00,VWS V14.01,2013-02-27 03:04:00,
2013-02-26 22:09:00,35.1,23.4,29.53,East,80,7.2,7.2,62,0.00,,---,0.00,VWS V14.01,2013-02-27 03:09:00,
2013-02-26 22:14:00,34.7,23.4,29.53,East,98,16.1,16.1,63,0.00,,---,0.00,VWS V14.01,2013-02-27 03:14:00,
2013-02-26 22:19:00,34.7,23.4,29.53,ENE,70,10.7,10.7,63,0.00,,---,0.00,VWS V14.01,2013-02-27 03:19:00,
2013-02-26 22:23:00,34.7,23.4,29.53,ENE,64,11.6,11.6,63,0.00,,---,0.00,VWS V14.01,2013-02-27 03:23:00,
2013-02-26 22:28:00,34.7,23.8,29.53,East,82,8.1,8.1,64,0.00,,---,0.00,VWS V14.01,2013-02-27 03:28:00,
2013-02-26 22:33:00,34.7,23.8,29.53,ENE,71,6.3,8.1,64,0.00,,---,0.00,VWS V14.01,2013-02-27 03:33:00,
2013-02-26 22:39:00,34.7,23.8,29.50,ESE,111,18.3,18.3,64,0.00,,---,0.00,VWS V14.01,2013-02-27 03:39:00,
2013-02-26 22:44:00,34.7,23.8,29.50,ENE,61,6.3,6.3,64,0.00,,---,0.00,VWS V14.01,2013-02-27 03:44:00,
2013-02-26 22:48:00,34.9,24.0,29.50,ENE,74,11.6,11.6,64,0.00,,---,0.00,VWS V14.01,2013-02-27 03:48:00,
2013-02-26 22:53:00,34.7,24.1,29.50,East,89,11.6,11.6,65,0.00,,---,0.00,VWS V14.01,2013-02-27 03:53:00,
2013-02-26 22:59:00,34.9,24.0,29.50,East,79,6.3,6.3,64,0.00,,---,0.00,VWS V14.01,2013-02-27 03:59:00,
2013-02-26 23:04:00,34.9,24.0,29.50,ESE,102,8.1,8.1,64,0.00,,---,0.00,VWS V14.01,2013-02-27 04:04:00,
2013-02-26 23:08:00,34.9,24.0,29.50,ESE,108,7.2,7.2,64,0.00,,---,0.00,VWS V14.01,2013-02-27 04:08:00,
2013-02-26 23:14:00,34.9,24.3,29.50,East,97,6.3,6.3,65,0.00,,---,0.00,VWS V14.01,2013-02-27 04:14:00,
2013-02-26 23:18:00,34.9,24.3,29.50,East,100,11.6,11.6,65,0.00,,---,0.00,VWS V14.01,2013-02-27 04:18:00,
2013-02-26 23:24:00,35.1,25.6,29.50,East,96,10.7,10.7,68,0.00,,---,0.00,VWS V14.01,2013-02-27 04:24:00,
2013-02-26 23:28:00,34.9,26.1,29.47,East,92,7.2,16.6,70,0.00,,---,0.00,VWS V14.01,2013-02-27 04:28:00,
2013-02-26 23:33:00,34.9,26.1,29.47,ENE,75,0.0,12.5,70,0.00,,---,0.00,VWS V14.01,2013-02-27 04:33:00,
2013-02-26 23:38:00,34.9,26.8,29.47,ENE,78,9.8,9.8,72,0.00,,---,0.00,VWS V14.01,2013-02-27 04:38:00,
2013-02-26 23:43:00,34.9,27.1,29.47,East,98,8.1,8.1,73,0.00,,---,0.00,VWS V14.01,2013-02-27 04:43:00,
2013-02-26 23:48:00,34.7,27.3,29.47,East,87,0.0,0.0,74,0.00,,---,0.00,VWS V14.01,2013-02-27 04:48:00,
2013-02-26 23:54:00,34.7,27.9,29.47,NE,52,11.6,11.6,76,0.00,,---,0.00,VWS V14.01,2013-02-27 04:54:00,
2013-02-26 23:58:00,34.7,28.2,29.47,ENE,69,4.5,4.5,77,0.00,,---,0.00,VWS V14.01,2013-02-27 04:58:00,